Weather History for KANW - December, 2012

Change the Weather History Date:

Saturday, December 1, 2012

  Actual Average Record
Temperature  
Mean Temperature 50 °F -  
Max Temperature 64 °F 40 °F 68 °F (1998)
Min Temperature 34 °F 21 °F 0 °F (2005)
Degree Days  
Heating Degree Days 16    
Moisture  
Dew Point 33 °F    
Average Humidity 58    
Maximum Humidity 89    
Minimum Humidity 30    
Precipitation  
Precipitation 0.00 in - - ()
Sea Level Pressure  
Sea Level Pressure 29.79 in    
Wind  
Wind Speed 12 mph (WSW)    
Max Wind Speed 21 mph    
Max Gust Speed 24 mph    
Visibility 10 miles    
Events      
Averages and records for this station are not official NWS values.
T = Trace of Precipitation, MM = Missing Value Source: NWS Daily Summary

Daily Weather History Graph

Daily Weather History Graph

Search for Another Location

Airport or City:

Trip Planner

Search our weather history database for the weather conditions in past years. The results will help you decide how hot, cold, wet, or windy it might be!

Date:

Astronomy

Dec. 01, 2012 Rise Set
Actual Time 7:50 AM CST 5:07 PM CST
Civil Twilight 7:19 AM CST 5:39 PM CST
Nautical Twilight 6:44 AM CST 6:14 PM CST
Astronomical Twilight 6:10 AM CST 6:48 PM CST
Moon 8:00 PM CST (12/1) 10:03 AM CST (12/1)
Length of Visible Light 10h 19m
Length of Day
9h 16m
Waning Gibbous, 91% of the Moon is Illuminated
Dec 1
Waning Gibbous
Dec 6
Last Quarter
Dec 13
New
Dec 19
First Quarter
Dec 28
Full

Hourly Weather History & Observations

Time (CST) Temp. Windchill Dew Point Humidity Pressure Visibility Wind Dir Wind Speed Gust Speed Precip Events Conditions
12:15 AM 39.2 °F 30.5 °F 29.8 °F 69% 29.78 in 10.0 mi South 16.1 mph - N/A   Clear
12:35 AM 39.4 °F 30.4 °F 29.7 °F 68% 29.78 in 10.0 mi SSW 17.3 mph - N/A   Clear
12:55 AM 39.2 °F 30.8 °F 29.7 °F 69% 29.78 in 10.0 mi SSW 15.0 mph - N/A   Clear
1:15 AM 39.2 °F 31.2 °F 29.3 °F 68% 29.77 in 10.0 mi SSW 13.8 mph - N/A   Clear
1:35 AM 40.1 °F 30.5 °F 29.5 °F 66% 29.76 in 10.0 mi SSW 20.7 mph - N/A   Clear
1:55 AM 41.0 °F 31.9 °F 30.2 °F 65% 29.76 in 10.0 mi SSW 19.6 mph - N/A   Clear
2:15 AM 40.6 °F 31.7 °F 29.3 °F 64% 29.75 in 10.0 mi SSW 18.4 mph 21.9 mph N/A   Clear
2:35 AM 41.0 °F 32.5 °F 28.4 °F 61% 29.75 in 10.0 mi SSW 17.3 mph - N/A   Clear
2:55 AM 41.5 °F 33.2 °F 28.6 °F 60% 29.75 in 10.0 mi SSW 17.3 mph 21.9 mph N/A   Clear
3:15 AM 41.5 °F 34.2 °F 28.4 °F 60% 29.75 in 10.0 mi SSW 13.8 mph - N/A   Clear
3:35 AM 41.7 °F 34.8 °F 28.2 °F 59% 29.75 in 10.0 mi SW 12.7 mph - N/A   Clear
3:55 AM 41.9 °F 35.0 °F 27.5 °F 57% 29.73 in 10.0 mi SW 12.7 mph - N/A   Clear
4:15 AM 42.4 °F 35.7 °F 27.5 °F 56% 29.72 in 10.0 mi SW 12.7 mph - N/A   Clear
4:35 AM 43.0 °F 37.7 °F 27.9 °F 55% 29.72 in 10.0 mi SW 9.2 mph - N/A   Clear
4:55 AM 43.2 °F 38.4 °F 28.0 °F 55% 29.72 in 10.0 mi SW 8.1 mph - N/A   Clear
5:15 AM 41.9 °F 36.9 °F 28.0 °F 58% 29.73 in 10.0 mi SW 8.1 mph - N/A   Clear
5:35 AM 43.5 °F 37.9 °F 28.4 °F 55% 29.73 in 10.0 mi SW 10.4 mph - N/A   Clear
5:55 AM 44.6 °F 39.2 °F 28.8 °F 54% 29.74 in 10.0 mi WSW 10.4 mph - N/A   Clear
6:15 AM 45.9 °F 40.8 °F 28.6 °F 51% 29.73 in 10.0 mi WSW 10.4 mph - N/A   Clear
6:35 AM 44.2 °F 39.7 °F 29.8 °F 57% 29.74 in 10.0 mi SW 8.1 mph - N/A   Clear
6:55 AM 45.0 °F 40.1 °F 30.2 °F 56% 29.74 in 10.0 mi WSW 9.2 mph - N/A   Scattered Clouds
7:15 AM 45.5 °F 40.3 °F 30.9 °F 57% 29.75 in 10.0 mi WSW 10.4 mph - N/A   Clear
7:35 AM 45.9 °F 41.7 °F 30.9 °F 56% 29.76 in 10.0 mi WSW 8.1 mph - N/A   Clear
7:55 AM 45.5 °F 39.9 °F 31.6 °F 58% 29.76 in 10.0 mi WSW 11.5 mph - N/A   Clear
8:15 AM 46.4 °F 42.4 °F 32.0 °F 57% 29.77 in 10.0 mi WSW 8.1 mph - N/A   Scattered Clouds
8:35 AM 46.9 °F - 32.0 °F 56% 29.78 in 10.0 mi WSW 10.4 mph - N/A   Mostly Cloudy
8:55 AM 46.8 °F - 32.0 °F 57% 29.78 in 10.0 mi WSW 10.4 mph - N/A   Scattered Clouds
9:15 AM 47.5 °F - 32.5 °F 56% 29.78 in 10.0 mi WSW 9.2 mph - N/A   Clear
9:35 AM 51.1 °F - 32.9 °F 50% 29.78 in 10.0 mi WSW 9.2 mph - N/A   Clear
9:55 AM 53.6 °F - 32.9 °F 45% 29.79 in 10.0 mi West 10.4 mph - N/A   Clear
10:15 AM 55.2 °F - 34.0 °F 45% 29.79 in 10.0 mi West 9.2 mph - N/A   Clear
10:35 AM 56.8 °F - 34.0 °F 42% 29.80 in 10.0 mi West 11.5 mph - N/A   Clear
10:55 AM 58.6 °F - 34.5 °F 40% 29.80 in 10.0 mi West 12.7 mph - N/A   Clear
11:15 AM 59.9 °F - 34.3 °F 38% 29.80 in 10.0 mi WNW 17.3 mph - N/A   Clear
11:35 AM 61.3 °F - 34.7 °F 37% 29.78 in 10.0 mi WNW 13.8 mph - N/A   Clear
11:55 AM 62.1 °F - 34.2 °F 35% 29.78 in 10.0 mi WNW 15.0 mph 24.2 mph N/A   Clear
12:15 PM 63.0 °F - 33.6 °F 33% 29.78 in 10.0 mi NW 16.1 mph 23.0 mph N/A   Clear
12:35 PM 63.1 °F - 33.4 °F 33% 29.77 in 10.0 mi WNW 17.3 mph 21.9 mph N/A   Clear
12:55 PM 64.4 °F - 32.0 °F 30% 29.77 in 10.0 mi WNW 15.0 mph - N/A   Clear
1:15 PM 64.4 °F - 33.4 °F 32% 29.76 in 10.0 mi West 13.8 mph 18.4 mph N/A   Clear
1:35 PM 64.0 °F - 32.2 °F 30% 29.76 in 10.0 mi West 15.0 mph 20.7 mph N/A   Clear
1:55 PM 64.6 °F - 32.2 °F 30% 29.76 in 10.0 mi West 13.8 mph - N/A   Clear
2:15 PM 63.5 °F - 32.5 °F 31% 29.76 in 10.0 mi NW 11.5 mph - N/A   Clear
2:35 PM 63.7 °F - 33.1 °F 32% 29.76 in 10.0 mi WNW 11.5 mph - N/A   Clear
2:55 PM 62.2 °F - 33.6 °F 34% 29.76 in 10.0 mi WNW 6.9 mph - N/A   Clear
3:15 PM 61.3 °F - 34.9 °F 37% 29.77 in 10.0 mi NW 9.2 mph - N/A   Clear
3:35 PM 60.8 °F - 35.6 °F 39% 29.78 in 10.0 mi WNW 9.2 mph - N/A   Clear
3:55 PM 59.7 °F - 36.3 °F 42% 29.78 in 10.0 mi WNW 8.1 mph - N/A   Clear
4:15 PM 58.6 °F - 36.9 °F 44% 29.80 in 10.0 mi West 8.1 mph - N/A   Clear
4:35 PM 56.5 °F - 37.0 °F 48% 29.80 in 10.0 mi WNW 9.2 mph - N/A   Clear
4:55 PM 53.6 °F - 37.4 °F 54% 29.81 in 10.0 mi West 9.2 mph - N/A   Clear
5:15 PM 52.9 °F - 37.0 °F 55% 29.81 in 10.0 mi West 6.9 mph - N/A   Clear
5:35 PM 50.0 °F - 36.7 °F 60% 29.82 in 10.0 mi WNW 3.5 mph - N/A   Clear
5:55 PM 49.1 °F - 36.9 °F 63% 29.82 in 10.0 mi WSW 4.6 mph - N/A   Clear
6:15 PM 46.8 °F - 37.0 °F 69% 29.83 in 10.0 mi West 4.6 mph - N/A   Clear
6:35 PM 46.4 °F 45.2 °F 36.7 °F 69% 29.83 in 10.0 mi West 3.5 mph - N/A   Clear
6:55 PM 45.5 °F 44.2 °F 36.5 °F 71% 29.84 in 10.0 mi West 3.5 mph - N/A   Clear
7:15 PM 45.5 °F 42.5 °F 36.5 °F 71% 29.84 in 10.0 mi West 5.8 mph - N/A   Clear
7:35 PM 44.2 °F 41.8 °F 36.1 °F 73% 29.85 in 10.0 mi WNW 4.6 mph - N/A   Clear
7:55 PM 42.1 °F 37.1 °F 35.1 °F 76% 29.85 in 10.0 mi WNW 8.1 mph - N/A   Clear
8:15 PM 41.9 °F 37.5 °F 35.1 °F 77% 29.86 in 10.0 mi West 6.9 mph - N/A   Clear
8:35 PM 41.7 °F 37.3 °F 35.1 °F 77% 29.87 in 10.0 mi WNW 6.9 mph - N/A   Clear
8:55 PM 41.5 °F 37.8 °F 35.2 °F 78% 29.85 in 10.0 mi West 5.8 mph - N/A   Clear
9:15 PM 38.5 °F - 33.3 °F 81% 29.87 in 10.0 mi Calm Calm - N/A   Clear
9:35 PM 39.2 °F 35.0 °F 34.0 °F 82% 29.87 in 10.0 mi WSW 5.8 mph - N/A   Clear
9:55 PM 38.1 °F 33.7 °F 34.0 °F 85% 29.88 in 10.0 mi WSW 5.8 mph - N/A   Clear
10:15 PM 37.8 °F - 34.7 °F 89% 29.88 in 10.0 mi Calm Calm - N/A   Clear
10:35 PM 37.8 °F - 33.1 °F 83% 29.89 in 10.0 mi Calm Calm - N/A   Clear
10:55 PM 35.1 °F 31.0 °F 31.8 °F 88% 29.89 in 10.0 mi WSW 4.6 mph - N/A   Clear
11:15 PM 36.7 °F 31.2 °F 33.4 °F 88% 29.89 in 10.0 mi SW 6.9 mph - N/A   Clear
11:35 PM 38.7 °F 35.2 °F 34.2 °F 84% 29.89 in 10.0 mi WSW 4.6 mph - N/A   Clear
11:55 PM 34.7 °F 31.8 °F 29.8 °F 82% 29.90 in 10.0 mi SSW 3.5 mph - N/A   Clear